This demonstration page uses our WeatherBlox Daily Observations layout. Learn more.

Hourly Observations for December 9, 2017

Temp ( °F °C ) Dew Point ( °F °C ) Humidity (%) Winds ( mph kmh ) Pressure ( in mb ) Visibility ( mi km ) Precip ( " mm )
12:54 am 00:54 Clear 33 0.6 24 -4.4 70 70 NW 10 17 30.04 1017 10 16.0934 0 0
1:54 am 01:54 Clear 32 0 24 -4.4 73 73 WNW 9 15 30.06 1018 10 16.0934 0 0
2:54 am 02:54 Clear 32 0 25 -3.9 75 75 NW 12 19 30.08 1019 10 16.0934 0 0
3:54 am 03:54 Clear 32 0 24 -4.4 73 73 NW 13 20 30.09 1019 10 16.0934 0 0
4:54 am 04:54 Clear 31 -0.6 24 -4.4 76 76 NNW 9 15 30.1 1019 10 16.0934 0 0
5:54 am 05:54 Clear 30 -1.1 24 -4.4 79 79 NNW 10 17 30.13 1020 10 16.0934 0 0
6:54 am 06:54 Clear 29 -1.7 23 -5 78 78 NNW 12 19 30.15 1021 10 16.0934 0 0
7:54 am 07:54 Sunny 28 -2.2 22 -5.6 78 78 NNW 13 20 30.17 1022 10 16.0934 0 0
8:54 am 08:54 Sunny 31 -0.6 23 -5 72 72 N 15 24 30.21 1023 10 16.0934 0 0
9:54 am 09:54 Sunny 33 0.6 22 -5.6 64 64 N 18 30 30.24 1024 10 16.0934 0 0
10:54 am 10:54 Sunny 35 1.7 22 -5.6 59 59 NNW 20 31 30.26 1025 10 16.0934 0 0
11:54 am 11:54 Sunny 38 3.3 21 -6.1 51 51 N 20 31 30.24 1024 10 16.0934 0 0
12:54 pm 12:54 Sunny 39 3.9 22 -5.6 50 50 N 17 28 30.23 1024 10 16.0934 0 0
1:54 pm 13:54 Sunny 40 4.4 21 -6.1 47 47 NW 13 20 30.22 1023 10 16.0934 0 0
2:54 pm 14:54 Sunny 42 5.6 22 -5.6 45 45 WNW 12 19 30.22 1023 10 16.0934 0 0
3:54 pm 15:54 Sunny 41 5 21 -6.1 45 45 NW 12 19 30.23 1024 10 16.0934 0 0
4:54 pm 16:54 Sunny 39 3.9 21 -6.1 48 48 NW 5 7 30.23 1024 10 16.0934 0 0
5:54 pm 17:54 Clear 31 -0.6 19 -7.2 61 61 Calm 30.22 1024 10 16.0934 0 0
6:54 pm 18:54 Clear 30 -1.1 19 -7.2 64 64 Calm 30.21 1023 10 16.0934 0 0
7:54 pm 19:54 Clear 27 -2.8 19 -7.2 72 72 S 3 6 30.2 1023 10 16.0934 0 0
8:54 pm 20:54 Clear 25 -3.9 18 -7.8 75 75 S 6 9 30.18 1022 10 16.0934 0 0
9:54 pm 21:54 Clear 26 -3.3 19 -7.2 75 75 S 5 7 30.15 1021 10 16.0934 0 0
10:54 pm 22:54 Clear 29 -1.7 20 -6.7 69 69 S 3 6 30.1 1019 10 16.0934 0 0
11:54 pm 23:54 Clear 31 -0.6 20 -6.7 64 64 WSW 5 7 30.1 1019 10 16.0934 0 0

Powered by AerisWeather